Dewpoint
44 44 44 45 45 46 47 47 48 48 48 49 51 54 56 56 57 58 60 62 63 64 64 64 64 65 65 65 65 65 65 64 64 64 64 64 64 63 63 62 63 62
43 46 46 46 45 46 46 47 47 48 48 50 52 52 52 53 54 56 59 61 62 63 64 64 64 64 65 65 65 65 65 65 64 65 64 64 64 64 63 63 63 63
44 44 44 43 44 44 45 45 47 48 49 48 48 49 49 51 52 54 56 58 60 63 64 64 64 64 64 64 64 64 64 64 64 64 64 64 64 63 64 64 63 63
44 44 43 43 44 44 45 45 46 46 46 47 47 47 48 49 51 52 54 56 58 60 62 64 64 64 64 64 64 64 64 64 64 64 64 64 64 64 64 64 63 63
44 44 43 43 44 44 45 44 44 44 44 45 46 47 49 49 50 51 53 55 56 58 62 63 64 64 65 64 64 64 64 64 64 64 64 63 64 64 64 64 63 63
43 43 44 43 44 44 43 43 43 44 44 45 46 48 48 48 48 49 51 52 55 57 59 62 63 64 65 65 65 64 64 64 64 64 63 63 63 64 64 64 63 63
43 43 43 43 43 43 44 44 44 45 45 45 46 46 46 46 47 48 49 51 53 55 57 60 62 63 64 65 65 64 64 64 63 63 63 63 63 63 63 63 63 63
43 43 43 43 43 43 44 44 44 44 44 45 45 45 46 46 47 48 50 51 52 54 57 60 61 62 63 64 64 64 64 64 63 63 63 63 63 63 63 63 63 63
44 43 44 43 43 43 43 44 44 45 45 45 45 45 46 47 47 48 49 50 52 54 56 59 61 62 63 63 64 64 64 64 64 63 63 63 63 63 62 63 63 63
43 44 44 43 42 42 42 43 44 45 46 46 46 46 46 47 48 49 50 51 52 53 55 58 60 62 62 63 63 63 63 63 63 63 63 63 63 63 62 63 63 63
44 44 43 42 41 41 42 43 44 45 46 46 47 47 48 49 51 51 52 52 53 54 56 58 60 61 62 62 63 63 63 63 63 63 63 63 63 63 63 63 63 62
44 44 43 41 41 42 42 42 42 42 42 44 47 49 50 50 51 49 52 54 55 56 58 59 60 61 61 61 61 62 63 63 63 63 63 62 62 63 62 62 62 62
44 44 43 42 41 41 42 41 41 42 42 42 44 47 48 49 48 47 48 52 55 58 59 60 60 60 61 61 61 62 62 62 63 63 63 63 62 62 62 62 62 62
44 43 42 42 42 42 41 41 41 41 42 42 43 45 47 47 46 45 46 47 51 54 58 59 59 59 60 60 61 61 62 62 62 63 62 63 63 63 62 62 62 62
43 43 42 42 42 41 41 41 41 42 42 42 42 43 45 45 45 44 44 45 47 52 53 55 58 59 59 60 61 62 62 61 61 62 63 62 63 63 63 62 62 62
41 41 41 41 41 41 41 41 41 42 42 41 41 41 42 43 44 43 43 44 45 47 49 51 53 56 58 52 51 58 60 61 61 61 62 62 62 63 63 63 63 63
39 40 40 40 41 41 41 41 41 41 40 40 40 40 40 40 42 43 43 43 44 45 46 48 50 52 49 45 45 46 52 56 58 60 60 61 62 61 61 63 63 64
39 39 40 40 41 41 41 40 40 40 39 39 40 40 40 41 41 41 42 42 43 44 45 46 47 49 45 44 44 44 46 52 54 56 58 61 61 62 63 62 62 62
39 39 40 39 39 40 39 39 39 39 39 39 39 40 41 40 40 41 41 42 43 43 43 44 45 45 43 43 43 43 43 47 52 54 56 57 60 61 62 63 63 63
39 38 38 38 38 38 38 39 39 38 39 39 40 41 40 40 41 41 41 41 42 42 43 43 44 44 42 42 42 42 42 43 49 52 55 56 57 60 61 61 62 62
38 37 37 38 38 38 38 39 39 38 38 38 39 40 41 41 41 41 41 42 42 42 42 42 43 43 42 41 41 41 41 42 49 52 54 54 55 58 60 61 61 61
37 37 37 37 37 38 37 38 39 38 37 37 39 39 40 40 41 42 42 42 42 42 42 42 43 42 41 41 41 41 41 47 49 51 52 53 54 56 58 60 61 62
37 37 36 36 37 37 37 38 39 38 37 37 37 37 36 37 37 38 39 40 41 41 42 42 43 42 41 41 41 41 42 47 48 50 52 53 54 56 57 58 59 60
37 36 36 36 36 36 37 38 39 38 36 36 35 35 35 35 35 35 36 37 38 39 40 41 42 42 41 41 41 41 43 46 48 49 50 52 54 56 57 58 59 58
37 36 36 36 36 36 37 37 38 38 37 35 35 35 35 35 35 34 34 35 36 37 40 39 40 41 41 41 41 41 44 47 48 49 50 52 54 55 57 58 58 58
36 36 36 35 35 35 36 37 38 37 35 35 34 34 33 33 33 33 33 33 35 36 37 38 39 40 41 40 41 42 42 46 48 49 50 52 54 55 55 57 58 59